Time,TemperatureF,DewpointF,PressureIn,WindDirection,WindDirectionDegrees,WindSpeedMPH,WindSpeedGustMPH,Humidity,HourlyPrecipIn,Conditions,Clouds,dailyrainin,SolarRadiationWatts/m^2,SoftwareType,DateUTC
2013-05-08 00:21:00,52.0,42.0,-100.00,NNE,20,1.0,6.0,69,0.00,,,0.00,0.000000,,2013-05-08 06:21:00,
2013-05-08 00:32:00,52.0,42.0,-100.00,NNE,20,1.0,6.0,69,0.00,,,0.00,0.000000,,2013-05-08 06:32:00,
2013-05-08 00:42:00,52.0,42.0,-100.00,NNE,20,1.0,6.0,69,0.00,,,0.00,0.000000,,2013-05-08 06:42:00,
2013-05-08 00:52:00,52.0,42.0,-100.00,NNE,20,1.0,6.0,69,0.00,,,0.00,0.000000,,2013-05-08 06:52:00,
2013-05-08 01:21:00,51.0,42.0,-100.00,SW,216,0.0,3.0,71,0.00,,,0.00,0.000000,,2013-05-08 07:21:00,
2013-05-08 01:32:00,51.0,42.0,-100.00,SW,216,0.0,3.0,71,0.00,,,0.00,0.000000,,2013-05-08 07:32:00,
2013-05-08 01:42:00,51.0,42.0,-100.00,SW,216,0.0,3.0,71,0.00,,,0.00,0.000000,,2013-05-08 07:42:00,
2013-05-08 01:52:00,51.0,42.0,-100.00,SW,216,0.0,3.0,71,0.00,,,0.00,0.000000,,2013-05-08 07:52:00,
2013-05-08 02:21:00,52.0,41.0,-100.00,SSW,209,2.0,7.0,65,0.00,,,0.00,0.000000,,2013-05-08 08:21:00,
2013-05-08 02:32:00,52.0,41.0,-100.00,SSW,209,2.0,7.0,65,0.00,,,0.00,0.000000,,2013-05-08 08:32:00,
2013-05-08 02:42:00,52.0,41.0,-100.00,SSW,209,2.0,7.0,65,0.00,,,0.00,0.000000,,2013-05-08 08:42:00,
2013-05-08 02:51:00,52.0,41.0,-100.00,SSW,209,2.0,7.0,65,0.00,,,0.00,0.000000,,2013-05-08 08:51:00,
2013-05-08 03:21:00,51.0,40.0,-100.00,NE,54,3.0,8.0,67,0.00,,,-99.99,0.000000,,2013-05-08 09:21:00,
2013-05-08 03:32:00,51.0,40.0,-100.00,NE,54,3.0,8.0,67,0.00,,,-99.99,0.000000,,2013-05-08 09:32:00,
2013-05-08 03:42:00,51.0,40.0,-100.00,NE,54,3.0,8.0,67,0.00,,,-99.99,0.000000,,2013-05-08 09:42:00,
2013-05-08 03:52:00,51.0,40.0,-100.00,NE,54,3.0,8.0,67,0.00,,,-99.99,0.000000,,2013-05-08 09:52:00,
2013-05-08 04:22:00,50.0,40.0,-100.00,NE,37,2.0,6.0,69,0.00,,,0.00,0.000000,,2013-05-08 10:22:00,
2013-05-08 04:33:00,50.0,40.0,-100.00,NE,37,2.0,6.0,69,0.00,,,0.00,0.000000,,2013-05-08 10:33:00,
2013-05-08 04:42:00,50.0,40.0,-100.00,NE,37,2.0,6.0,69,0.00,,,0.00,0.000000,,2013-05-08 10:42:00,
2013-05-08 04:52:00,50.0,40.0,-100.00,NE,37,2.0,6.0,69,0.00,,,0.00,0.000000,,2013-05-08 10:52:00,
2013-05-08 05:22:00,48.0,40.0,-100.00,North,357,1.0,3.0,73,0.00,,,-99.99,0.000000,,2013-05-08 11:22:00,
2013-05-08 05:32:00,48.0,40.0,-100.00,North,357,1.0,3.0,73,0.00,,,-99.99,0.000000,,2013-05-08 11:32:00,
2013-05-08 05:42:00,48.0,40.0,-100.00,North,357,1.0,3.0,73,0.00,,,-99.99,0.000000,,2013-05-08 11:42:00,
2013-05-08 05:52:00,48.0,40.0,-100.00,North,357,1.0,3.0,73,0.00,,,-99.99,0.000000,,2013-05-08 11:52:00,
2013-05-08 06:21:00,50.0,39.0,-100.00,North,5,3.0,4.0,65,0.00,,,0.00,4.000000,,2013-05-08 12:21:00,
2013-05-08 06:32:00,50.0,39.0,-100.00,North,5,3.0,4.0,65,0.00,,,0.00,4.000000,,2013-05-08 12:32:00,
2013-05-08 06:41:00,50.0,39.0,-100.00,North,5,3.0,4.0,65,0.00,,,0.00,4.000000,,2013-05-08 12:41:00,
2013-05-08 06:51:00,50.0,39.0,-100.00,North,5,3.0,4.0,65,0.00,,,0.00,4.000000,,2013-05-08 12:51:00,
2013-05-08 07:21:00,55.0,40.0,-100.00,NNE,26,2.0,4.0,56,0.00,,,0.00,87.000000,,2013-05-08 13:21:00,
2013-05-08 07:32:00,55.0,40.0,-100.00,NNE,26,2.0,4.0,56,0.00,,,0.00,87.000000,,2013-05-08 13:32:00,
2013-05-08 07:42:00,55.0,40.0,-100.00,NNE,26,2.0,4.0,56,0.00,,,0.00,87.000000,,2013-05-08 13:42:00,
2013-05-08 07:52:00,55.0,40.0,-100.00,NNE,26,2.0,4.0,56,0.00,,,0.00,87.000000,,2013-05-08 13:52:00,
2013-05-08 08:21:00,59.0,41.0,-100.00,NNE,22,4.0,9.0,51,0.00,,,0.00,277.000000,,2013-05-08 14:21:00,
2013-05-08 08:32:00,59.0,41.0,-100.00,NNE,22,4.0,9.0,51,0.00,,,0.00,277.000000,,2013-05-08 14:32:00,
2013-05-08 08:42:00,59.0,41.0,-100.00,NNE,22,4.0,9.0,51,0.00,,,0.00,277.000000,,2013-05-08 14:42:00,
2013-05-08 08:51:00,59.0,41.0,-100.00,NNE,22,4.0,9.0,51,0.00,,,0.00,277.000000,,2013-05-08 14:51:00,
2013-05-08 09:21:00,65.0,40.0,-100.00,NE,44,7.0,13.0,40,0.00,,,-99.99,476.000000,,2013-05-08 15:21:00,
2013-05-08 09:33:00,65.0,40.0,-100.00,NE,44,7.0,13.0,40,0.00,,,-99.99,476.000000,,2013-05-08 15:33:00,
2013-05-08 09:42:00,65.0,40.0,-100.00,NE,44,7.0,13.0,40,0.00,,,-99.99,476.000000,,2013-05-08 15:42:00,
2013-05-08 09:52:00,65.0,40.0,-100.00,NE,44,7.0,13.0,40,0.00,,,-99.99,476.000000,,2013-05-08 15:52:00,
2013-05-08 10:23:00,68.0,39.0,-100.00,NE,35,7.0,16.0,35,0.00,,,-99.99,660.000000,,2013-05-08 16:23:00,
2013-05-08 10:33:00,68.0,39.0,-100.00,NE,35,7.0,16.0,35,0.00,,,-99.99,660.000000,,2013-05-08 16:33:00,
2013-05-08 10:42:00,68.0,39.0,-100.00,NE,35,7.0,16.0,35,0.00,,,-99.99,660.000000,,2013-05-08 16:42:00,
2013-05-08 10:52:00,68.0,39.0,-100.00,NE,35,7.0,16.0,35,0.00,,,-99.99,660.000000,,2013-05-08 16:52:00,
2013-05-08 11:22:00,68.0,38.0,-100.00,NE,38,8.0,16.0,33,0.00,,,-99.99,814.000000,,2013-05-08 17:22:00,
2013-05-08 11:32:00,68.0,38.0,-100.00,NE,38,8.0,16.0,33,0.00,,,-99.99,814.000000,,2013-05-08 17:32:00,
2013-05-08 11:41:00,68.0,38.0,-100.00,NE,38,8.0,16.0,33,0.00,,,-99.99,814.000000,,2013-05-08 17:41:00,
2013-05-08 11:52:00,68.0,38.0,-100.00,NE,38,8.0,16.0,33,0.00,,,-99.99,814.000000,,2013-05-08 17:52:00,
2013-05-08 12:21:00,68.0,36.0,-100.00,ESE,109,7.0,17.0,31,0.00,,,0.00,922.000000,,2013-05-08 18:21:00,
2013-05-08 12:32:00,68.0,36.0,-100.00,ESE,109,7.0,17.0,31,0.00,,,0.00,922.000000,,2013-05-08 18:32:00,
2013-05-08 12:42:00,68.0,36.0,-100.00,ESE,109,7.0,17.0,31,0.00,,,0.00,922.000000,,2013-05-08 18:42:00,
2013-05-08 12:52:00,68.0,36.0,-100.00,ESE,109,7.0,17.0,31,0.00,,,0.00,922.000000,,2013-05-08 18:52:00,
2013-05-08 13:22:00,70.0,38.0,-100.00,ENE,58,7.0,21.0,31,0.00,,,0.00,979.000000,,2013-05-08 19:22:00,
2013-05-08 13:32:00,70.0,38.0,-100.00,ENE,58,7.0,21.0,31,0.00,,,0.00,979.000000,,2013-05-08 19:32:00,
2013-05-08 13:42:00,70.0,38.0,-100.00,ENE,58,7.0,21.0,31,0.00,,,0.00,979.000000,,2013-05-08 19:42:00,
2013-05-08 13:52:00,70.0,38.0,-100.00,ENE,58,7.0,21.0,31,0.00,,,0.00,979.000000,,2013-05-08 19:52:00,
2013-05-08 14:22:00,69.0,37.0,-100.00,ENE,68,8.0,19.0,31,0.00,,,0.00,976.000000,,2013-05-08 20:22:00,
2013-05-08 14:32:00,69.0,37.0,-100.00,ENE,68,8.0,19.0,31,0.00,,,0.00,976.000000,,2013-05-08 20:32:00,
2013-05-08 14:42:00,69.0,37.0,-100.00,ENE,68,8.0,19.0,31,0.00,,,0.00,976.000000,,2013-05-08 20:42:00,
2013-05-08 14:52:00,69.0,37.0,-100.00,ENE,68,8.0,19.0,31,0.00,,,0.00,976.000000,,2013-05-08 20:52:00,
2013-05-08 15:21:00,70.0,35.0,-100.00,NE,46,9.0,20.0,28,0.00,,,0.00,906.000000,,2013-05-08 21:21:00,
2013-05-08 15:33:00,70.0,35.0,-100.00,NE,46,9.0,20.0,28,0.00,,,0.00,906.000000,,2013-05-08 21:33:00,
2013-05-08 15:43:00,70.0,35.0,-100.00,NE,46,9.0,20.0,28,0.00,,,0.00,906.000000,,2013-05-08 21:43:00,
2013-05-08 15:52:00,70.0,35.0,-100.00,NE,46,9.0,20.0,28,0.00,,,0.00,906.000000,,2013-05-08 21:52:00,
2013-05-08 16:22:00,70.0,33.0,-100.00,NE,42,8.0,22.0,25,0.00,,,0.00,792.000000,,2013-05-08 22:22:00,
2013-05-08 16:33:00,70.0,33.0,-100.00,NE,42,8.0,22.0,25,0.00,,,0.00,792.000000,,2013-05-08 22:33:00,
2013-05-08 16:42:00,70.0,33.0,-100.00,NE,42,8.0,22.0,25,0.00,,,0.00,792.000000,,2013-05-08 22:42:00,
2013-05-08 16:52:00,70.0,33.0,-100.00,NE,42,8.0,22.0,25,0.00,,,0.00,792.000000,,2013-05-08 22:52:00,
2013-05-08 17:22:00,66.0,34.0,-100.00,NE,52,9.0,24.0,30,0.00,,,0.00,523.000000,,2013-05-08 23:22:00,
2013-05-08 17:32:00,66.0,34.0,-100.00,NE,52,9.0,24.0,30,0.00,,,0.00,523.000000,,2013-05-08 23:32:00,
2013-05-08 17:42:00,66.0,34.0,-100.00,NE,52,9.0,24.0,30,0.00,,,0.00,523.000000,,2013-05-08 23:42:00,
2013-05-08 17:52:00,66.0,34.0,-100.00,NE,52,9.0,24.0,30,0.00,,,0.00,523.000000,,2013-05-08 23:52:00,
2013-05-08 18:21:00,68.0,35.0,-100.00,NE,44,8.0,21.0,29,0.00,,,0.00,408.000000,,2013-05-09 00:21:00,
2013-05-08 18:32:00,68.0,35.0,-100.00,NE,44,8.0,21.0,29,0.00,,,0.00,408.000000,,2013-05-09 00:32:00,
2013-05-08 18:42:00,68.0,35.0,-100.00,NE,44,8.0,21.0,29,0.00,,,0.00,408.000000,,2013-05-09 00:42:00,
2013-05-08 18:52:00,68.0,35.0,-100.00,NE,44,8.0,21.0,29,0.00,,,0.00,408.000000,,2013-05-09 00:52:00,
2013-05-08 19:22:00,66.0,34.0,-100.00,NE,37,7.0,20.0,30,0.00,,,0.00,246.000000,,2013-05-09 01:22:00,
2013-05-08 19:32:00,66.0,34.0,-100.00,NE,37,7.0,20.0,30,0.00,,,0.00,246.000000,,2013-05-09 01:32:00,
2013-05-08 19:42:00,66.0,34.0,-100.00,NE,37,7.0,20.0,30,0.00,,,0.00,246.000000,,2013-05-09 01:42:00,
2013-05-08 19:52:00,66.0,34.0,-100.00,NE,37,7.0,20.0,30,0.00,,,0.00,246.000000,,2013-05-09 01:52:00,
2013-05-08 20:22:00,62.0,33.0,-100.00,ENE,58,8.0,19.0,34,0.00,,,0.00,49.000000,,2013-05-09 02:22:00,
2013-05-08 20:32:00,62.0,33.0,-100.00,ENE,58,8.0,19.0,34,0.00,,,0.00,49.000000,,2013-05-09 02:32:00,
2013-05-08 20:42:00,62.0,33.0,-100.00,ENE,58,8.0,19.0,34,0.00,,,0.00,49.000000,,2013-05-09 02:42:00,
2013-05-08 20:52:00,62.0,33.0,-100.00,ENE,58,8.0,19.0,34,0.00,,,0.00,49.000000,,2013-05-09 02:52:00,
2013-05-08 21:21:00,59.0,33.0,-100.00,ENE,77,7.0,17.0,38,0.00,,,0.00,2.000000,,2013-05-09 03:21:00,
2013-05-08 21:33:00,59.0,33.0,-100.00,ENE,77,7.0,17.0,38,0.00,,,0.00,2.000000,,2013-05-09 03:33:00,
2013-05-08 21:43:00,59.0,33.0,-100.00,ENE,77,7.0,17.0,38,0.00,,,0.00,2.000000,,2013-05-09 03:43:00,
2013-05-08 21:52:00,59.0,33.0,-100.00,ENE,77,7.0,17.0,38,0.00,,,0.00,2.000000,,2013-05-09 03:52:00,
2013-05-08 22:23:00,59.0,33.0,-100.00,ENE,63,7.0,17.0,37,0.00,,,0.00,0.000000,,2013-05-09 04:23:00,
2013-05-08 22:33:00,59.0,33.0,-100.00,ENE,63,7.0,17.0,37,0.00,,,0.00,0.000000,,2013-05-09 04:33:00,
2013-05-08 22:43:00,59.0,33.0,-100.00,ENE,63,7.0,17.0,37,0.00,,,0.00,0.000000,,2013-05-09 04:43:00,
2013-05-08 22:52:00,59.0,33.0,-100.00,ENE,63,7.0,17.0,37,0.00,,,0.00,0.000000,,2013-05-09 04:52:00,
2013-05-08 23:22:00,57.0,34.0,-100.00,ENE,63,7.0,18.0,41,0.00,,,0.00,0.000000,,2013-05-09 05:22:00,
2013-05-08 23:32:00,57.0,34.0,-100.00,ENE,63,7.0,18.0,41,0.00,,,0.00,0.000000,,2013-05-09 05:32:00,
2013-05-08 23:42:00,57.0,34.0,-100.00,ENE,63,7.0,18.0,41,0.00,,,0.00,0.000000,,2013-05-09 05:42:00,
2013-05-08 23:51:00,57.0,34.0,-100.00,ENE,63,7.0,18.0,41,0.00,,,0.00,0.000000,,2013-05-09 05:51:00,